Regional Weather Roundup
Issued by NWS

Home | Current Version | Previous Version | Graphics & Text | Print | Product List | Glossary On
Versions: 1 2 3 4 5 6 7 8 9 10 11 12 13 14 15 16 17 18 19 20 21 22 23 24 25 26 27 28 29 30 31 32 33 34 35 36 37 38 39 40 41 42 43 44 45 46 47 48 49 50
000
ASUS43 KFSD 210710
RWRSD

WEATHER ROUNDUP FOR SOUTH DAKOTA
NATIONAL WEATHER SERVICE SIOUX FALLS SD
200 AM CDT THU AUG 21 2014

NOTE: "FAIR" INDICATES FEW OR NO CLOUDS BELOW 12,000 FEET WITH NO
SIGNIFICANT WEATHER AND/OR OBSTRUCTIONS TO VISIBILITY.


SDZ001>005-009-010-012>017-210800-
NORTHWEST AND NORTH CENTRAL SOUTH DAKOTA

CITY           SKY/WX    TMP DP  RH WIND       PRES   REMARKS
BUFFALO          N/A     59  55  87 W6        29.79S
FAITH            N/A     62  61  96 NW7       29.80S
MOBRIDGE       CLEAR     64  64 100 W6        29.68S
$$

SDZ012>016-024>037-041>051-057-063-072>074-210800-
SOUTHWEST AND SOUTH CENTRAL SOUTH DAKOTA

CITY           SKY/WX    TMP DP  RH WIND       PRES   REMARKS
RAPID CTY ARPT PTCLDY    66  58  75 N6        29.85R
PIERRE         PTCLDY    69  67  93 NE8       29.69R
CUSTER         MOCLDY    63  48  58 NW5       29.98S
ELLSWORTH AFB  PTCLDY    66  59  76 N9        29.85R
PHILIP         CLEAR     66  62  87 CALM      29.79R
PINE RIDGE     CLEAR     59  56  89 S6        29.86R
WINNER         FAIR      75  68  78 W10       29.71F
$$

SDZ004>011-016>023-039-040-210800-
NORTHEAST SOUTH DAKOTA

CITY           SKY/WX    TMP DP  RH WIND       PRES   REMARKS
ABERDEEN       RAIN      65  65 100 E9        29.73S FOG
WATERTOWN      CLOUDY    72  70  93 SE9       29.70S
SISSETON         N/A     71  70  96 VRB5      29.70F
$$

SDZ017-020-022-023-036>040-048>070-210800-
SOUTHEAST SOUTH DAKOTA

CITY           SKY/WX    TMP DP  RH WIND       PRES   REMARKS
SIOUX FALLS    PTCLDY    77  72  84 S13       29.69F
HURON          PTCLDY    74  72  93 S8        29.64F
CHAMBERLAIN      N/A     70  70  99 SE6       29.67F FOG
MITCHELL       CLEAR     76  74  93 S8        29.65F
YANKTON        MOCLDY    75  73  94 SE9       29.68F
$$

ABBREVIATIONS USED IN REMARKS
   TC - TEMPERATURE IN CELSIUS
  WCI - WIND CHILL INDEX
   HX - HEAT INDEX
  VSB - VISIBILITY




USA.gov is the U.S. government's official web portal to all federal, state and local government web resources and services.